Time,TemperatureF,DewpointF,PressureIn,WindDirection,WindDirectionDegrees,WindSpeedMPH,WindSpeedGustMPH,Humidity,HourlyPrecipIn,Conditions,Clouds,dailyrainin,SolarRadiationWatts/m^2,SoftwareType,DateUTC
2013-09-09 00:04:00,76.5,66.8,30.12,North,0,4.3,4.6,72,0.00,SCT,BKN,0.00,0.0,WeatherDisplay:10.37,2013-09-09 10:04:00,
2013-09-09 00:09:00,76.5,66.8,30.12,North,0,0.0,5.8,72,0.00,SCT,BKN,0.00,0.0,WeatherDisplay:10.37,2013-09-09 10:09:00,
2013-09-09 00:14:00,76.5,66.8,30.09,WSW,248,0.9,5.8,72,0.00,SCT,BKN,0.00,0.0,WeatherDisplay:10.37,2013-09-09 10:14:00,
2013-09-09 00:19:00,76.3,66.2,30.09,West,270,3.1,3.5,71,0.00,SCT,BKN,0.00,0.0,WeatherDisplay:10.37,2013-09-09 10:19:00,
2013-09-09 00:24:00,76.3,66.2,30.12,NE,45,1.2,1.2,71,0.00,SCT,BKN,0.00,0.0,WeatherDisplay:10.37,2013-09-09 10:24:00,
2013-09-09 00:29:00,76.1,66.0,30.12,NE,45,0.0,0.0,71,0.00,SCT,BKN,0.00,0.0,WeatherDisplay:10.37,2013-09-09 10:29:00,
2013-09-09 00:34:00,75.9,65.8,30.12,ENE,68,2.2,2.9,71,0.00,SCT,BKN,0.00,0.0,WeatherDisplay:10.37,2013-09-09 10:34:00,
2013-09-09 00:39:00,75.9,65.8,30.09,SW,225,0.0,1.2,71,0.00,SCT,BKN,0.00,0.0,WeatherDisplay:10.37,2013-09-09 10:39:00,
2013-09-09 00:44:00,76.1,66.4,30.09,NE,45,2.2,4.3,72,0.00,SCT,BKN,0.00,0.0,WeatherDisplay:10.37,2013-09-09 10:44:00,
2013-09-09 00:49:00,76.1,66.0,30.09,North,0,3.8,7.4,71,0.00,SCT,BKN,0.00,0.0,WeatherDisplay:10.37,2013-09-09 10:49:00,
2013-09-09 00:54:00,76.1,66.0,30.09,NNE,22,0.0,1.2,71,0.00,SCT,BKN,0.00,0.0,WeatherDisplay:10.37,2013-09-09 10:54:00,
2013-09-09 00:59:00,76.1,66.0,30.09,East,90,4.3,4.6,71,0.00,SCT,BKN,0.00,0.0,WeatherDisplay:10.37,2013-09-09 10:59:00,
2013-09-09 01:04:00,76.1,66.0,30.09,NE,45,3.1,5.8,71,0.00,SCT,BKN,0.00,0.0,WeatherDisplay:10.37,2013-09-09 11:04:00,
2013-09-09 01:09:00,76.1,66.0,30.06,NNE,22,4.3,5.8,71,0.00,SCT,BKN,0.00,0.0,WeatherDisplay:10.37,2013-09-09 11:09:00,
2013-09-09 01:14:00,76.1,66.4,30.06,North,0,3.8,6.4,72,0.00,SCT,BKN,0.00,0.0,WeatherDisplay:10.37,2013-09-09 11:14:00,
2013-09-09 01:19:00,75.9,66.2,30.06,NE,45,2.9,3.5,72,0.00,SCT,BKN,0.00,0.0,WeatherDisplay:10.37,2013-09-09 11:19:00,
2013-09-09 01:24:00,75.9,66.2,30.06,North,0,3.1,4.6,72,0.00,SCT,BKN,0.00,0.0,WeatherDisplay:10.37,2013-09-09 11:24:00,
2013-09-09 01:29:00,75.9,66.2,30.06,NNE,22,3.6,4.6,72,0.00,SCT,BKN,0.00,0.0,WeatherDisplay:10.37,2013-09-09 11:29:00,
2013-09-09 01:34:00,76.1,66.4,30.06,NW,315,2.6,3.5,72,0.00,SCT,BKN,0.00,0.0,WeatherDisplay:10.37,2013-09-09 11:34:00,
2013-09-09 01:39:00,76.1,66.0,30.06,ENE,68,2.4,3.5,71,0.00,SCT,BKN,0.00,0.0,WeatherDisplay:10.37,2013-09-09 11:39:00,
2013-09-09 01:44:00,76.1,66.4,30.06,ENE,68,2.2,4.6,72,0.00,SCT,BKN,0.00,0.0,WeatherDisplay:10.37,2013-09-09 11:44:00,
2013-09-09 01:49:00,75.9,66.2,30.06,East,90,2.0,3.5,72,0.00,SCT,BKN,0.00,0.0,WeatherDisplay:10.37,2013-09-09 11:49:00,
2013-09-09 01:54:00,75.9,66.2,30.06,SW,225,1.6,2.3,72,0.00,SCT,BKN,0.00,0.0,WeatherDisplay:10.37,2013-09-09 11:54:00,
2013-09-09 01:59:00,75.9,65.8,30.06,North,0,2.2,5.8,71,0.00,SCT,BKN,0.00,0.0,WeatherDisplay:10.37,2013-09-09 11:59:00,
2013-09-09 02:04:00,75.7,66.1,30.06,NE,45,3.1,4.6,72,0.00,SCT,BKN,0.00,0.0,WeatherDisplay:10.37,2013-09-09 12:04:00,
2013-09-09 02:09:00,75.6,66.3,30.06,ENE,68,3.1,4.6,73,0.00,SCT,BKN,0.00,0.0,WeatherDisplay:10.37,2013-09-09 12:09:00,
2013-09-09 02:14:00,75.4,65.7,30.06,NE,45,0.9,4.3,72,0.00,SCT,BKN,0.00,0.0,WeatherDisplay:10.37,2013-09-09 12:14:00,
2013-09-09 02:19:00,75.4,65.7,30.06,NE,45,2.4,2.9,72,0.00,SCT,BKN,0.00,0.0,WeatherDisplay:10.37,2013-09-09 12:19:00,
2013-09-09 02:24:00,75.4,66.1,30.03,East,90,2.6,5.8,73,0.00,SCT,BKN,0.00,0.0,WeatherDisplay:10.37,2013-09-09 12:24:00,
2013-09-09 02:29:00,75.4,66.1,30.03,North,0,3.8,5.8,73,0.00,SCT,BKN,0.00,0.0,WeatherDisplay:10.37,2013-09-09 12:29:00,
2013-09-09 02:34:00,75.4,66.1,30.03,North,0,2.9,4.3,73,0.00,SCT,BKN,0.00,0.0,WeatherDisplay:10.37,2013-09-09 12:34:00,
2013-09-09 02:39:00,75.6,66.7,30.06,NE,45,4.5,6.9,74,0.00,SCT,BKN,0.00,0.0,WeatherDisplay:10.37,2013-09-09 12:39:00,
2013-09-09 02:44:00,75.7,66.1,30.06,North,0,2.6,4.6,72,0.00,SCT,BKN,0.00,0.0,WeatherDisplay:10.37,2013-09-09 12:44:00,
2013-09-09 02:49:00,75.7,65.3,30.06,East,90,3.1,5.8,70,0.00,SCT,BKN,0.00,0.0,WeatherDisplay:10.37,2013-09-09 12:49:00,
2013-09-09 02:54:00,75.7,65.7,30.06,NNE,22,3.3,4.6,71,0.00,SCT,BKN,0.00,0.0,WeatherDisplay:10.37,2013-09-09 12:54:00,
2013-09-09 02:59:00,75.6,65.9,30.06,NNE,22,3.6,3.6,72,0.00,SCT,BKN,0.00,0.0,WeatherDisplay:10.37,2013-09-09 12:59:00,
2013-09-09 03:04:00,75.6,65.9,30.06,NNW,338,3.8,4.6,72,0.00,SCT,BKN,0.00,0.0,WeatherDisplay:10.37,2013-09-09 13:04:00,
2013-09-09 03:09:00,75.7,66.1,30.09,NE,45,1.6,2.3,72,0.00,SCT,BKN,0.00,0.0,WeatherDisplay:10.37,2013-09-09 13:09:00,
2013-09-09 03:14:00,75.6,66.3,30.09,NNW,338,1.6,4.6,73,0.00,SCT,BKN,0.00,0.0,WeatherDisplay:10.37,2013-09-09 13:14:00,
2013-09-09 03:19:00,75.6,66.3,30.09,NW,315,2.9,5.8,73,0.00,SCT,BKN,0.00,0.0,WeatherDisplay:10.37,2013-09-09 13:19:00,
2013-09-09 03:24:00,75.4,66.1,30.06,East,90,0.0,2.3,73,0.00,SCT,BKN,0.00,0.0,WeatherDisplay:10.37,2013-09-09 13:24:00,
2013-09-09 03:29:00,75.2,65.9,30.06,NW,315,2.0,2.4,73,0.00,SCT,BKN,0.00,0.0,WeatherDisplay:10.37,2013-09-09 13:29:00,
2013-09-09 03:34:00,75.4,66.1,30.06,East,90,0.0,2.4,73,0.00,SCT,BKN,0.00,0.0,WeatherDisplay:10.37,2013-09-09 13:34:00,
2013-09-09 03:39:00,75.4,66.1,30.06,NNE,22,2.4,3.6,73,0.00,SCT,BKN,0.00,0.0,WeatherDisplay:10.37,2013-09-09 13:39:00,
2013-09-09 03:44:00,75.4,65.3,30.06,NNE,22,3.8,5.8,71,0.00,SCT,BKN,0.00,0.0,WeatherDisplay:10.37,2013-09-09 13:44:00,
2013-09-09 03:49:00,75.4,65.7,30.06,NW,315,0.9,1.2,72,0.00,SCT,BKN,0.00,0.0,WeatherDisplay:10.37,2013-09-09 13:49:00,
2013-09-09 03:54:00,75.4,65.3,30.06,NE,45,1.4,2.3,71,0.00,SCT,BKN,0.00,0.0,WeatherDisplay:10.37,2013-09-09 13:54:00,
2013-09-09 03:59:00,75.4,65.3,30.06,NNE,22,3.3,4.6,71,0.00,SCT,BKN,0.00,0.0,WeatherDisplay:10.37,2013-09-09 13:59:00,
2013-09-09 04:04:00,75.2,65.1,30.06,ENE,68,1.4,2.3,71,0.00,SCT,BKN,0.00,0.0,WeatherDisplay:10.37,2013-09-09 14:04:00,
2013-09-09 04:09:00,75.4,64.9,30.06,ENE,68,3.8,3.8,70,0.00,SCT,BKN,0.00,0.0,WeatherDisplay:10.37,2013-09-09 14:09:00,
2013-09-09 04:14:00,75.4,64.9,30.06,NW,315,3.1,4.6,70,0.00,SCT,BKN,0.00,0.0,WeatherDisplay:10.37,2013-09-09 14:14:00,
2013-09-09 04:19:00,75.4,65.3,30.06,NNE,22,3.3,3.5,71,0.00,SCT,BKN,0.00,0.0,WeatherDisplay:10.37,2013-09-09 14:19:00,
2013-09-09 04:24:00,75.4,65.3,30.06,NNW,338,4.7,8.1,71,0.00,SCT,BKN,0.00,0.0,WeatherDisplay:10.37,2013-09-09 14:24:00,
2013-09-09 04:29:00,75.7,65.3,30.06,NW,315,3.1,4.6,70,0.00,SCT,BKN,0.00,0.0,WeatherDisplay:10.37,2013-09-09 14:29:00,
2013-09-09 04:34:00,75.6,65.1,30.06,NNW,338,2.6,3.6,70,0.00,SCT,BKN,0.00,0.0,WeatherDisplay:10.37,2013-09-09 14:34:00,
2013-09-09 04:39:00,75.6,65.1,30.06,NE,45,3.8,4.6,70,0.00,SCT,BKN,0.00,0.0,WeatherDisplay:10.37,2013-09-09 14:39:00,
2013-09-09 04:44:00,75.4,64.9,30.06,NE,45,2.4,4.6,70,0.00,SCT,BKN,0.00,0.0,WeatherDisplay:10.37,2013-09-09 14:44:00,
2013-09-09 04:49:00,75.4,64.5,30.06,NNE,22,2.2,3.5,69,0.00,SCT,BKN,0.00,0.0,WeatherDisplay:10.37,2013-09-09 14:49:00,
2013-09-09 04:54:00,75.2,64.3,30.06,NE,45,2.6,3.5,69,0.00,SCT,BKN,0.00,0.0,WeatherDisplay:10.37,2013-09-09 14:54:00,
2013-09-09 04:59:00,75.2,64.7,30.06,NE,45,3.8,4.6,70,0.00,SCT,BKN,0.00,0.0,WeatherDisplay:10.37,2013-09-09 14:59:00,
2013-09-09 05:04:00,75.0,65.4,30.06,NE,45,2.4,4.6,72,0.00,SCT,BKN,0.00,0.0,WeatherDisplay:10.37,2013-09-09 15:04:00,
2013-09-09 05:09:00,75.0,65.4,30.06,NE,45,2.2,4.7,72,0.00,SCT,BKN,0.00,0.0,WeatherDisplay:10.37,2013-09-09 15:09:00,
2013-09-09 05:14:00,75.0,65.4,30.06,NE,45,3.1,5.8,72,0.00,SCT,BKN,0.00,0.0,WeatherDisplay:10.37,2013-09-09 15:14:00,
2013-09-09 05:19:00,75.0,65.4,30.06,NE,45,1.6,2.3,72,0.00,SCT,BKN,0.00,0.0,WeatherDisplay:10.37,2013-09-09 15:19:00,
2013-09-09 05:24:00,75.0,65.4,30.06,East,90,0.9,2.6,72,0.00,SCT,BKN,0.00,0.0,WeatherDisplay:10.37,2013-09-09 15:24:00,
2013-09-09 05:29:00,75.0,65.8,30.06,NE,45,1.6,3.1,73,0.00,SCT,BKN,0.00,0.0,WeatherDisplay:10.37,2013-09-09 15:29:00,
2013-09-09 05:34:00,75.0,66.2,30.06,ENE,68,2.2,3.5,74,0.00,SCT,BKN,0.00,0.0,WeatherDisplay:10.37,2013-09-09 15:34:00,
2013-09-09 05:39:00,75.0,66.2,30.06,East,90,2.2,4.3,74,0.00,SCT,BKN,0.00,0.0,WeatherDisplay:10.37,2013-09-09 15:39:00,
2013-09-09 05:44:00,74.8,66.0,30.06,North,0,0.9,3.6,74,0.00,SCT,BKN,0.00,0.0,WeatherDisplay:10.37,2013-09-09 15:44:00,
2013-09-09 05:49:00,74.8,66.0,30.06,East,90,2.0,2.3,74,0.00,SCT,BKN,0.00,0.0,WeatherDisplay:10.37,2013-09-09 15:49:00,
2013-09-09 05:54:00,74.7,65.8,30.06,NE,45,0.0,2.4,74,0.00,SCT,BKN,0.00,0.0,WeatherDisplay:10.37,2013-09-09 15:54:00,
2013-09-09 05:59:00,75.0,65.8,30.06,North,0,4.3,4.6,73,0.00,SCT,BKN,0.00,0.0,WeatherDisplay:10.37,2013-09-09 15:59:00,
2013-09-09 06:04:00,75.0,65.8,30.06,NNE,22,7.4,8.1,73,0.00,SCT,BKN,0.00,0.0,WeatherDisplay:10.37,2013-09-09 16:04:00,
2013-09-09 06:09:00,75.2,65.6,30.06,NE,45,2.6,3.5,72,0.00,SCT,BKN,0.00,0.0,WeatherDisplay:10.37,2013-09-09 16:09:00,
2013-09-09 06:14:00,75.0,65.4,30.06,ENE,68,2.4,2.4,72,0.00,SCT,BKN,0.00,0.0,WeatherDisplay:10.37,2013-09-09 16:14:00,
2013-09-09 06:19:00,74.8,65.2,30.06,East,90,1.2,4.6,72,0.00,SCT,BKN,0.00,0.0,WeatherDisplay:10.37,2013-09-09 16:19:00,
2013-09-09 06:24:00,74.8,65.2,30.06,NE,45,0.9,2.4,72,0.00,SCT,BKN,0.00,0.0,WeatherDisplay:10.37,2013-09-09 16:24:00,
2013-09-09 06:29:00,74.8,65.6,30.06,NNE,22,3.1,4.6,73,0.00,SCT,BKN,0.00,0.0,WeatherDisplay:10.37,2013-09-09 16:29:00,
2013-09-09 06:34:00,74.8,65.6,30.06,NE,45,0.9,2.4,73,0.00,SCT,BKN,0.00,0.0,WeatherDisplay:10.37,2013-09-09 16:34:00,
2013-09-09 06:39:00,74.8,65.6,30.06,ESE,112,1.2,2.3,73,0.00,SCT,BKN,0.00,0.0,WeatherDisplay:10.37,2013-09-09 16:39:00,
2013-09-09 06:44:00,74.8,65.6,30.06,East,90,2.9,3.5,73,0.00,SCT,BKN,0.00,0.0,WeatherDisplay:10.37,2013-09-09 16:44:00,
2013-09-09 06:49:00,74.8,65.6,30.06,NNE,22,1.4,3.5,73,0.00,SCT,BKN,0.00,0.0,WeatherDisplay:10.37,2013-09-09 16:49:00,
2013-09-09 06:54:00,75.0,65.8,30.03,East,90,4.7,4.7,73,0.00,SCT,BKN,0.00,0.0,WeatherDisplay:10.37,2013-09-09 16:54:00,
2013-09-09 06:59:00,75.2,65.9,30.03,ENE,68,2.0,4.6,73,0.00,SCT,BKN,0.00,0.0,WeatherDisplay:10.37,2013-09-09 16:59:00,
2013-09-09 07:04:00,75.0,65.4,30.03,NE,45,1.2,2.6,72,0.00,SCT,BKN,0.00,0.0,WeatherDisplay:10.37,2013-09-09 17:04:00,
2013-09-09 07:09:00,75.0,65.4,30.06,NNE,22,2.6,3.6,72,0.00,SCT,BKN,0.00,0.0,WeatherDisplay:10.37,2013-09-09 17:09:00,
2013-09-09 07:14:00,75.2,65.1,30.06,NNE,22,2.9,4.6,71,0.00,SCT,BKN,0.00,0.0,WeatherDisplay:10.37,2013-09-09 17:14:00,
2013-09-09 07:19:00,75.4,64.9,30.06,WSW,248,3.3,4.6,70,0.00,SCT,BKN,0.00,0.0,WeatherDisplay:10.37,2013-09-09 17:19:00,
2013-09-09 07:24:00,75.6,65.1,30.06,NE,45,2.2,3.5,70,0.00,SCT,BKN,0.00,0.0,WeatherDisplay:10.37,2013-09-09 17:24:00,
2013-09-09 07:29:00,75.6,65.5,30.06,NNE,22,1.6,3.3,71,0.00,SCT,BKN,0.00,0.0,WeatherDisplay:10.37,2013-09-09 17:29:00,
2013-09-09 07:34:00,75.6,65.5,30.06,East,90,0.9,3.5,71,0.00,SCT,BKN,0.00,0.0,WeatherDisplay:10.37,2013-09-09 17:34:00,
2013-09-09 07:39:00,75.6,65.9,30.06,West,270,3.8,4.9,72,0.00,SCT,BKN,0.00,0.0,WeatherDisplay:10.37,2013-09-09 17:39:00,
2013-09-09 07:44:00,75.9,66.2,30.06,East,90,1.6,2.3,72,0.00,SCT,BKN,0.00,0.0,WeatherDisplay:10.37,2013-09-09 17:44:00,
2013-09-09 07:49:00,75.9,66.2,30.06,WNW,292,2.4,4.0,72,0.00,SCT,BKN,0.00,0.0,WeatherDisplay:10.37,2013-09-09 17:49:00,
2013-09-09 07:54:00,75.9,66.6,30.06,North,0,2.9,4.6,73,0.00,SCT,BKN,0.00,0.0,WeatherDisplay:10.37,2013-09-09 17:54:00,
2013-09-09 07:59:00,76.1,66.4,30.06,East,90,1.4,3.5,72,0.00,SCT,BKN,0.00,0.0,WeatherDisplay:10.37,2013-09-09 17:59:00,
2013-09-09 08:04:00,76.5,67.2,30.06,North,0,2.6,5.8,73,0.00,SCT,BKN,0.00,0.0,WeatherDisplay:10.37,2013-09-09 18:04:00,
2013-09-09 08:09:00,76.6,66.9,30.09,SSE,158,2.6,3.5,72,0.00,SCT,BKN,0.00,0.0,WeatherDisplay:10.37,2013-09-09 18:09:00,
2013-09-09 08:14:00,76.6,66.5,30.09,NW,315,2.4,3.5,71,0.00,SCT,BKN,0.00,0.0,WeatherDisplay:10.37,2013-09-09 18:14:00,
2013-09-09 08:19:00,76.8,66.3,30.09,North,0,3.1,3.5,70,0.00,SCT,BKN,0.00,0.0,WeatherDisplay:10.37,2013-09-09 18:19:00,
2013-09-09 08:24:00,76.8,66.3,30.09,NE,45,2.0,3.5,70,0.00,SCT,BKN,0.00,0.0,WeatherDisplay:10.37,2013-09-09 18:24:00,
2013-09-09 08:29:00,77.2,66.2,30.09,SSW,202,2.2,4.6,69,0.00,SCT,BKN,0.00,0.0,WeatherDisplay:10.37,2013-09-09 18:29:00,
2013-09-09 08:34:00,77.2,66.2,30.09,NE,45,2.6,3.5,69,0.00,SCT,BKN,0.00,0.0,WeatherDisplay:10.37,2013-09-09 18:34:00,
2013-09-09 08:39:00,77.2,65.4,30.09,WNW,292,0.0,1.2,67,0.00,SCT,BKN,0.00,0.0,WeatherDisplay:10.37,2013-09-09 18:39:00,
2013-09-09 08:44:00,77.4,65.5,30.09,East,90,2.9,4.6,67,0.00,SCT,BKN,0.00,0.0,WeatherDisplay:10.37,2013-09-09 18:44:00,
2013-09-09 08:49:00,77.5,65.7,30.09,SSE,158,2.2,3.5,67,0.00,SCT,BKN,0.00,0.0,WeatherDisplay:10.37,2013-09-09 18:49:00,
2013-09-09 08:54:00,77.4,65.5,30.09,NNE,22,2.9,4.9,67,0.00,SCT,BKN,0.00,0.0,WeatherDisplay:10.37,2013-09-09 18:54:00,
2013-09-09 08:59:00,77.4,65.5,30.09,NE,45,0.9,2.9,67,0.00,SCT,BKN,0.00,0.0,WeatherDisplay:10.37,2013-09-09 18:59:00,
2013-09-09 09:04:00,77.4,66.0,30.09,NNE,22,2.6,4.0,68,0.00,SCT,BKN,0.00,0.0,WeatherDisplay:10.37,2013-09-09 19:04:00,
2013-09-09 09:09:00,76.6,66.5,30.09,ENE,68,2.9,5.8,71,0.00,SCT,BKN,0.00,0.0,WeatherDisplay:10.37,2013-09-09 19:09:00,
2013-09-09 09:14:00,76.6,66.9,30.09,East,90,3.6,3.6,72,0.00,SCT,BKN,0.00,0.0,WeatherDisplay:10.37,2013-09-09 19:14:00,
2013-09-09 09:19:00,76.6,66.9,30.09,NNE,22,2.6,2.6,72,0.00,SCT,BKN,0.00,0.0,WeatherDisplay:10.37,2013-09-09 19:19:00,
2013-09-09 09:24:00,76.5,65.9,30.09,NNE,22,4.0,5.8,70,0.00,SCT,BKN,0.00,0.0,WeatherDisplay:10.37,2013-09-09 19:24:00,
2013-09-09 09:29:00,76.6,66.5,30.09,NE,45,2.9,3.5,71,0.00,SCT,BKN,0.00,0.0,WeatherDisplay:10.37,2013-09-09 19:29:00,
2013-09-09 09:34:00,76.8,66.3,30.09,North,0,2.2,3.1,70,0.00,SCT,BKN,0.00,0.0,WeatherDisplay:10.37,2013-09-09 19:34:00,
2013-09-09 09:39:00,77.2,66.6,30.12,East,90,1.6,3.5,70,0.00,SCT,BKN,0.00,0.0,WeatherDisplay:10.37,2013-09-09 19:39:00,
2013-09-09 09:44:00,77.5,66.6,30.12,NE,45,1.4,2.3,69,0.00,SCT,BKN,0.00,0.0,WeatherDisplay:10.37,2013-09-09 19:44:00,
2013-09-09 09:49:00,77.7,66.7,30.12,ENE,68,3.3,4.6,69,0.00,SCT,BKN,0.00,0.0,WeatherDisplay:10.37,2013-09-09 19:49:00,
2013-09-09 09:54:00,77.7,66.7,30.12,WSW,248,1.6,2.4,69,0.00,SCT,BKN,0.00,0.0,WeatherDisplay:10.37,2013-09-09 19:54:00,
2013-09-09 09:59:00,77.7,66.3,30.12,East,90,3.3,4.6,68,0.00,SCT,BKN,0.00,0.0,WeatherDisplay:10.37,2013-09-09 19:59:00,
2013-09-09 10:04:00,77.7,65.9,30.12,NE,45,3.6,5.8,67,0.00,SCT,BKN,0.00,0.0,WeatherDisplay:10.37,2013-09-09 20:04:00,
2013-09-09 10:09:00,78.1,66.7,30.09,North,0,2.9,4.6,68,0.00,SCT,BKN,0.00,0.0,WeatherDisplay:10.37,2013-09-09 20:09:00,
2013-09-09 10:14:00,78.4,66.6,30.09,ENE,68,2.6,5.8,67,0.00,SCT,BKN,0.00,0.0,WeatherDisplay:10.37,2013-09-09 20:14:00,
2013-09-09 10:19:00,79.3,67.0,30.09,NNE,22,0.9,1.2,66,0.00,SCT,BKN,0.00,0.0,WeatherDisplay:10.37,2013-09-09 20:19:00,
2013-09-09 10:24:00,79.3,66.5,30.09,East,90,4.0,4.6,65,0.00,SCT,BKN,0.00,0.0,WeatherDisplay:10.37,2013-09-09 20:24:00,
2013-09-09 10:29:00,79.7,66.9,30.09,NE,45,1.6,2.3,65,0.00,SCT,BKN,0.00,0.0,WeatherDisplay:10.37,2013-09-09 20:29:00,
2013-09-09 10:34:00,79.9,66.6,30.09,North,0,2.4,3.6,64,0.00,SCT,BKN,0.00,0.0,WeatherDisplay:10.37,2013-09-09 20:34:00,
2013-09-09 10:39:00,79.9,65.2,30.12,NNE,22,5.4,5.8,61,0.00,SCT,BKN,0.00,0.0,WeatherDisplay:10.37,2013-09-09 20:39:00,
2013-09-09 10:44:00,79.7,65.1,30.12,NNW,338,5.6,8.1,61,0.00,SCT,BKN,0.00,0.0,WeatherDisplay:10.37,2013-09-09 20:44:00,
2013-09-09 10:49:00,80.8,66.5,30.12,SE,135,2.9,4.6,62,0.00,SCT,BKN,0.00,0.0,WeatherDisplay:10.37,2013-09-09 20:49:00,
2013-09-09 10:54:00,81.7,67.4,30.09,North,0,2.2,4.0,62,0.00,SCT,BKN,0.00,0.0,WeatherDisplay:10.37,2013-09-09 20:54:00,
2013-09-09 10:59:00,81.3,66.1,30.09,ENE,68,2.0,3.8,60,0.00,SCT,BKN,0.00,0.0,WeatherDisplay:10.37,2013-09-09 20:59:00,
2013-09-09 11:04:00,82.0,66.8,30.09,NW,315,3.8,8.1,60,0.00,SCT,BKN,0.00,0.0,WeatherDisplay:10.37,2013-09-09 21:04:00,
2013-09-09 11:09:00,82.2,66.0,30.09,NW,315,4.3,5.8,58,0.00,SCT,BKN,0.00,0.0,WeatherDisplay:10.37,2013-09-09 21:09:00,
2013-09-09 11:14:00,81.9,66.1,30.09,North,0,1.2,4.6,59,0.00,SCT,BKN,0.00,0.0,WeatherDisplay:10.37,2013-09-09 21:14:00,
2013-09-09 11:19:00,81.7,66.0,30.09,NNE,22,4.3,5.8,59,0.00,SCT,BKN,0.00,0.0,WeatherDisplay:10.37,2013-09-09 21:19:00,
2013-09-09 11:24:00,82.4,66.6,30.09,WNW,292,2.0,4.6,59,0.00,SCT,BKN,0.00,0.0,WeatherDisplay:10.37,2013-09-09 21:24:00,
2013-09-09 11:29:00,81.7,66.0,30.09,NE,45,4.3,6.9,59,0.00,SCT,BKN,0.00,0.0,WeatherDisplay:10.37,2013-09-09 21:29:00,
2013-09-09 11:34:00,82.4,66.6,30.09,NE,45,2.4,5.8,59,0.00,SCT,BKN,0.00,0.0,WeatherDisplay:10.37,2013-09-09 21:34:00,
2013-09-09 11:39:00,81.9,65.1,30.09,ENE,68,5.6,5.8,57,0.00,SCT,BKN,0.00,0.0,WeatherDisplay:10.37,2013-09-09 21:39:00,
2013-09-09 11:44:00,83.7,67.3,30.09,East,90,0.9,6.9,58,0.00,SCT,BKN,0.00,0.0,WeatherDisplay:10.37,2013-09-09 21:44:00,
2013-09-09 11:49:00,84.9,67.5,30.09,North,0,3.1,4.6,56,0.00,SCT,BKN,0.00,0.0,WeatherDisplay:10.37,2013-09-09 21:49:00,
2013-09-09 11:54:00,84.6,65.5,30.09,NNE,22,3.6,4.6,53,0.00,SCT,BKN,0.00,0.0,WeatherDisplay:10.37,2013-09-09 21:54:00,
2013-09-09 11:59:00,85.5,66.9,30.09,NE,45,3.6,4.6,54,0.00,SCT,BKN,0.00,0.0,WeatherDisplay:10.37,2013-09-09 21:59:00,
2013-09-09 12:04:00,87.3,68.0,30.09,East,90,3.1,5.8,53,0.00,SCT,BKN,0.00,0.0,WeatherDisplay:10.37,2013-09-09 22:04:00,
2013-09-09 12:09:00,87.6,67.3,30.06,NE,45,3.8,5.9,51,0.00,SCT,BKN,0.00,0.0,WeatherDisplay:10.37,2013-09-09 22:09:00,
2013-09-09 12:14:00,84.9,65.3,30.06,ESE,112,3.6,6.9,52,0.00,SCT,BKN,0.00,0.0,WeatherDisplay:10.37,2013-09-09 22:14:00,
2013-09-09 12:19:00,86.0,66.3,30.06,NNE,22,3.1,5.4,52,0.00,SCT,BKN,0.00,0.0,WeatherDisplay:10.37,2013-09-09 22:19:00,
2013-09-09 12:24:00,84.9,65.3,30.06,NW,315,2.9,3.5,52,0.00,SCT,BKN,0.00,0.0,WeatherDisplay:10.37,2013-09-09 22:24:00,
2013-09-09 12:29:00,87.1,66.2,30.06,NNE,22,4.9,8.1,50,0.00,SCT,BKN,0.00,0.0,WeatherDisplay:10.37,2013-09-09 22:29:00,
2013-09-09 12:34:00,89.1,68.0,30.06,NE,45,3.6,5.8,50,0.00,SCT,BKN,0.00,0.0,WeatherDisplay:10.37,2013-09-09 22:34:00,
2013-09-09 12:39:00,88.5,67.5,30.06,NNE,22,3.3,6.9,50,0.00,SCT,BKN,0.00,0.0,WeatherDisplay:10.37,2013-09-09 22:39:00,
2013-09-09 12:44:00,89.1,66.8,30.06,NE,45,3.3,5.8,48,0.00,SCT,BKN,0.00,0.0,WeatherDisplay:10.37,2013-09-09 22:44:00,
2013-09-09 12:49:00,88.5,66.3,30.06,NE,45,2.9,3.5,48,0.00,SCT,BKN,0.00,0.0,WeatherDisplay:10.37,2013-09-09 22:49:00,
2013-09-09 12:54:00,88.3,66.8,30.06,West,270,4.3,5.8,49,0.00,SCT,BKN,0.00,0.0,WeatherDisplay:10.37,2013-09-09 22:54:00,
2013-09-09 12:59:00,89.8,66.9,30.06,NNE,22,3.6,4.9,47,0.00,SCT,BKN,0.00,0.0,WeatherDisplay:10.37,2013-09-09 22:59:00,
2013-09-09 13:04:00,89.4,67.1,30.06,NE,45,2.9,4.6,48,0.00,SCT,BKN,0.00,0.0,WeatherDisplay:10.37,2013-09-09 23:04:00,
2013-09-09 13:09:00,90.0,67.0,30.06,North,0,3.3,5.8,47,0.00,SCT,BKN,0.00,0.0,WeatherDisplay:10.37,2013-09-09 23:09:00,
2013-09-09 13:14:00,90.7,66.4,30.06,NNE,22,3.6,5.6,45,0.00,SCT,BKN,0.00,0.0,WeatherDisplay:10.37,2013-09-09 23:14:00,
2013-09-09 13:19:00,90.0,65.1,30.06,NNE,22,4.0,6.9,44,0.00,SCT,BKN,0.00,0.0,WeatherDisplay:10.37,2013-09-09 23:19:00,
2013-09-09 13:24:00,90.1,65.3,30.06,NNE,22,4.3,5.8,44,0.00,SCT,BKN,0.00,0.0,WeatherDisplay:10.37,2013-09-09 23:24:00,
2013-09-09 13:29:00,89.6,63.5,30.06,NE,45,6.0,6.9,42,0.00,SCT,BKN,0.00,0.0,WeatherDisplay:10.37,2013-09-09 23:29:00,
2013-09-09 13:34:00,89.6,63.5,30.06,NE,45,3.8,4.6,42,0.00,SCT,BKN,0.00,0.0,WeatherDisplay:10.37,2013-09-09 23:34:00,
2013-09-09 13:39:00,89.6,63.5,30.06,ENE,68,4.3,6.9,42,0.00,SCT,BKN,0.00,0.0,WeatherDisplay:10.37,2013-09-09 23:39:00,
2013-09-09 13:44:00,89.6,64.1,30.06,NNE,22,4.3,5.8,43,0.00,SCT,BKN,0.00,0.0,WeatherDisplay:10.37,2013-09-09 23:44:00,
2013-09-09 14:02:00,93.9,66.6,30.09,NNE,22,2.0,3.5,41,0.00,SCT,BKN,0.00,0.0,WeatherDisplay:10.37,2013-09-10 00:02:00,
2013-09-09 14:07:00,93.4,64.7,30.09,NNE,22,2.4,4.6,39,0.00,SCT,BKN,0.00,0.0,WeatherDisplay:10.37,2013-09-10 00:07:00,
2013-09-09 14:12:00,93.4,64.7,30.06,ENE,68,4.0,4.6,39,0.00,SCT,BKN,0.00,0.0,WeatherDisplay:10.37,2013-09-10 00:12:00,
2013-09-09 14:17:00,92.5,64.6,30.06,NE,45,3.3,6.9,40,0.00,SCT,BKN,0.00,0.0,WeatherDisplay:10.37,2013-09-10 00:17:00,
2013-09-09 14:22:00,90.9,63.9,30.06,NE,45,4.9,5.8,41,0.00,SCT,BKN,0.00,0.0,WeatherDisplay:10.37,2013-09-10 00:22:00,
2013-09-09 14:27:00,91.2,64.9,30.06,North,0,4.3,4.6,42,0.00,SCT,BKN,0.00,0.0,WeatherDisplay:10.37,2013-09-10 00:27:00,
2013-09-09 14:32:00,90.7,64.4,30.06,North,0,5.4,5.8,42,0.00,SCT,BKN,0.00,0.0,WeatherDisplay:10.37,2013-09-10 00:32:00,
2013-09-09 14:37:00,91.4,65.8,30.06,NE,45,4.0,6.2,43,0.00,SCT,BKN,0.00,0.0,WeatherDisplay:10.37,2013-09-10 00:37:00,
2013-09-09 14:42:00,90.9,65.3,30.06,NNW,338,3.8,5.8,43,0.00,SCT,BKN,0.00,0.0,WeatherDisplay:10.37,2013-09-10 00:42:00,
2013-09-09 14:47:00,88.7,64.6,30.06,NE,45,2.2,3.5,45,0.00,SCT,BKN,0.00,0.0,WeatherDisplay:10.37,2013-09-10 00:47:00,
2013-09-09 14:52:00,87.4,65.3,30.06,East,90,3.1,4.6,48,0.00,SCT,BKN,0.00,0.0,WeatherDisplay:10.37,2013-09-10 00:52:00,
2013-09-09 14:57:00,89.1,66.8,30.06,NE,45,2.9,4.6,48,0.00,SCT,BKN,0.00,0.0,WeatherDisplay:10.37,2013-09-10 00:57:00,
2013-09-09 15:02:00,89.6,65.4,30.06,NNE,22,4.0,5.8,45,0.00,SCT,BKN,0.00,0.0,WeatherDisplay:10.37,2013-09-10 01:02:00,
2013-09-09 15:07:00,89.2,64.5,30.06,NNE,22,6.0,8.1,44,0.00,SCT,BKN,0.00,0.0,WeatherDisplay:10.37,2013-09-10 01:07:00,
2013-09-09 15:12:00,89.1,63.7,30.03,East,90,5.6,6.2,43,0.00,SCT,BKN,0.00,0.0,WeatherDisplay:10.37,2013-09-10 01:12:00,
2013-09-09 15:17:00,88.5,63.8,30.03,NE,45,6.0,6.9,44,0.00,SCT,BKN,0.00,0.0,WeatherDisplay:10.37,2013-09-10 01:17:00,
2013-09-09 15:22:00,89.6,64.8,30.03,ENE,68,3.8,6.0,44,0.00,SCT,BKN,0.00,0.0,WeatherDisplay:10.37,2013-09-10 01:22:00,
2013-09-09 15:27:00,89.2,65.1,30.06,North,0,4.0,4.6,45,0.00,SCT,BKN,0.00,0.0,WeatherDisplay:10.37,2013-09-10 01:27:00,
2013-09-09 15:32:00,90.0,65.8,30.06,NE,45,3.6,6.4,45,0.00,SCT,BKN,0.00,0.0,WeatherDisplay:10.37,2013-09-10 01:32:00,
2013-09-09 15:37:00,89.6,64.1,30.06,NNE,22,4.0,5.8,43,0.00,SCT,BKN,0.00,0.0,WeatherDisplay:10.37,2013-09-10 01:37:00,
2013-09-09 15:42:00,88.9,64.1,30.06,NNE,22,4.5,9.2,44,0.00,SCT,BKN,0.00,0.0,WeatherDisplay:10.37,2013-09-10 01:42:00,
2013-09-09 15:47:00,89.1,65.0,30.06,East,90,4.3,6.9,45,0.00,SCT,BKN,0.00,0.0,WeatherDisplay:10.37,2013-09-10 01:47:00,
2013-09-09 15:52:00,89.8,66.2,30.06,NNE,22,2.0,3.5,46,0.00,SCT,BKN,0.00,0.0,WeatherDisplay:10.37,2013-09-10 01:52:00,
2013-09-09 15:57:00,88.9,64.1,30.06,NE,45,4.0,5.6,44,0.00,SCT,BKN,0.00,0.0,WeatherDisplay:10.37,2013-09-10 01:57:00,
2013-09-09 16:03:00,88.2,62.8,30.06,NE,45,3.8,4.6,43,0.00,SCT,BKN,0.00,0.0,WeatherDisplay:10.37,2013-09-10 02:03:00,
2013-09-09 16:08:00,88.2,64.8,30.06,ENE,68,4.0,5.8,46,0.00,SCT,BKN,0.00,0.0,WeatherDisplay:10.37,2013-09-10 02:08:00,
2013-09-09 16:13:00,88.7,64.0,30.06,NE,45,3.1,4.6,44,0.00,SCT,BKN,0.00,0.0,WeatherDisplay:10.37,2013-09-10 02:13:00,
2013-09-09 16:18:00,87.8,62.5,30.06,NE,45,4.0,5.4,43,0.00,SCT,BKN,0.00,0.0,WeatherDisplay:10.37,2013-09-10 02:18:00,
2013-09-09 16:23:00,88.0,63.3,30.06,NNW,338,2.4,5.8,44,0.00,SCT,BKN,0.00,0.0,WeatherDisplay:10.37,2013-09-10 02:23:00,
2013-09-09 16:28:00,88.9,64.1,30.06,NE,45,3.6,4.6,44,0.00,SCT,BKN,0.00,0.0,WeatherDisplay:10.37,2013-09-10 02:28:00,
2013-09-09 16:33:00,88.5,62.5,30.06,NNW,338,2.6,4.6,42,0.00,SCT,BKN,0.00,0.0,WeatherDisplay:10.37,2013-09-10 02:33:00,
2013-09-09 16:38:00,88.2,62.8,30.06,North,0,2.6,3.5,43,0.00,SCT,BKN,0.00,0.0,WeatherDisplay:10.37,2013-09-10 02:38:00,
2013-09-09 16:43:00,88.2,62.8,30.06,East,90,3.1,6.9,43,0.00,SCT,BKN,0.00,0.0,WeatherDisplay:10.37,2013-09-10 02:43:00,
2013-09-09 16:48:00,88.3,62.3,30.06,NW,315,3.8,5.8,42,0.00,SCT,BKN,0.00,0.0,WeatherDisplay:10.37,2013-09-10 02:48:00,
2013-09-09 16:53:00,87.1,61.9,30.06,NE,45,5.4,5.8,43,0.00,SCT,BKN,0.00,0.0,WeatherDisplay:10.37,2013-09-10 02:53:00,
2013-09-09 16:58:00,86.9,62.4,30.06,NE,45,4.0,4.0,44,0.00,SCT,BKN,0.00,0.0,WeatherDisplay:10.37,2013-09-10 02:58:00,
2013-09-09 17:03:00,86.7,62.8,30.06,NE,45,2.9,4.6,45,0.00,SCT,BKN,0.00,0.0,WeatherDisplay:10.37,2013-09-10 03:03:00,
2013-09-09 17:08:00,85.8,63.9,30.06,NNE,22,4.0,4.0,48,0.00,SCT,BKN,0.00,0.0,WeatherDisplay:10.37,2013-09-10 03:08:00,
2013-09-09 17:13:00,85.5,62.9,30.06,NNE,22,3.3,4.6,47,0.00,SCT,BKN,0.00,0.0,WeatherDisplay:10.37,2013-09-10 03:13:00,
2013-09-09 17:18:00,84.9,64.2,30.06,NE,45,4.3,5.8,50,0.00,SCT,BKN,0.00,0.0,WeatherDisplay:10.37,2013-09-10 03:18:00,
2013-09-09 17:23:00,84.2,65.2,30.06,NE,45,4.0,5.8,53,0.00,SCT,BKN,0.00,0.0,WeatherDisplay:10.37,2013-09-10 03:23:00,
2013-09-09 17:28:00,84.6,65.0,30.06,NNE,22,2.2,3.6,52,0.00,SCT,BKN,0.00,0.0,WeatherDisplay:10.37,2013-09-10 03:28:00,
2013-09-09 17:33:00,83.8,64.3,30.06,NE,45,2.0,3.5,52,0.00,SCT,BKN,0.00,0.0,WeatherDisplay:10.37,2013-09-10 03:33:00,
2013-09-09 17:38:00,84.4,65.4,30.06,NE,45,2.6,8.1,53,0.00,SCT,BKN,0.00,0.0,WeatherDisplay:10.37,2013-09-10 03:38:00,
2013-09-09 17:43:00,83.8,64.9,30.06,NNE,22,2.2,3.5,53,0.00,SCT,BKN,0.00,0.0,WeatherDisplay:10.37,2013-09-10 03:43:00,
2013-09-09 17:48:00,84.0,65.6,30.06,NE,45,2.9,3.5,54,0.00,SCT,BKN,0.00,0.0,WeatherDisplay:10.37,2013-09-10 03:48:00,
2013-09-09 17:53:00,84.0,65.0,30.06,NE,45,2.0,4.6,53,0.00,SCT,BKN,0.00,0.0,WeatherDisplay:10.37,2013-09-10 03:53:00,
2013-09-09 17:58:00,83.5,65.1,30.06,NE,45,3.1,5.8,54,0.00,SCT,BKN,0.00,0.0,WeatherDisplay:10.37,2013-09-10 03:58:00,
2013-09-09 18:01:00,82.9,65.1,30.06,NE,45,5.4,6.9,55,0.00,SCT,BKN,0.00,0.0,WeatherDisplay:10.37,2013-09-10 04:01:00,
2013-09-09 18:02:00,82.9,65.1,30.06,NNE,22,3.6,4.6,55,0.00,SCT,BKN,0.00,0.0,WeatherDisplay:10.37,2013-09-10 04:02:00,
2013-09-09 18:03:00,82.4,65.1,30.06,NNE,22,3.6,4.9,56,0.00,SCT,BKN,0.00,0.0,WeatherDisplay:10.37,2013-09-10 04:03:00,
2013-09-09 18:08:00,82.2,65.0,30.06,NNE,22,2.4,3.5,56,0.00,SCT,BKN,0.00,0.0,WeatherDisplay:10.37,2013-09-10 04:08:00,
2013-09-09 18:09:00,82.0,65.8,30.06,NE,45,2.9,6.0,58,0.00,SCT,BKN,0.00,0.0,WeatherDisplay:10.37,2013-09-10 04:09:00,
2013-09-09 18:14:00,81.7,65.5,30.06,NE,45,0.0,2.3,58,0.00,SCT,BKN,0.00,0.0,WeatherDisplay:10.37,2013-09-10 04:14:00,
2013-09-09 18:19:00,80.8,64.6,30.06,NNE,22,3.6,4.6,58,0.00,SCT,BKN,0.00,0.0,WeatherDisplay:10.37,2013-09-10 04:19:00,
2013-09-09 18:24:00,79.3,65.2,30.09,NE,45,6.4,6.9,62,0.00,SCT,BKN,0.00,0.0,WeatherDisplay:10.37,2013-09-10 04:24:00,
2013-09-09 18:29:00,78.8,64.7,30.09,NNE,22,4.9,4.9,62,0.00,SCT,BKN,0.00,0.0,WeatherDisplay:10.37,2013-09-10 04:29:00,
2013-09-09 18:34:00,78.3,64.6,30.09,ESE,112,3.1,4.6,63,0.00,SCT,BKN,0.00,0.0,WeatherDisplay:10.37,2013-09-10 04:34:00,
2013-09-09 18:39:00,78.1,65.8,30.09,NE,45,3.8,5.8,66,0.00,SCT,BKN,0.00,0.0,WeatherDisplay:10.37,2013-09-10 04:39:00,
2013-09-09 18:44:00,77.5,65.3,30.09,NE,45,3.6,7.8,66,0.00,SCT,BKN,0.00,0.0,WeatherDisplay:10.37,2013-09-10 04:44:00,
2013-09-09 18:49:00,77.4,64.7,30.09,East,90,2.6,3.5,65,0.00,SCT,BKN,0.00,0.0,WeatherDisplay:10.37,2013-09-10 04:49:00,
2013-09-09 18:54:00,77.4,65.1,30.12,NE,45,3.3,5.4,66,0.00,SCT,BKN,0.00,0.0,WeatherDisplay:10.37,2013-09-10 04:54:00,
2013-09-09 18:59:00,77.2,65.4,30.12,ENE,68,3.3,4.6,67,0.00,SCT,BKN,0.00,0.0,WeatherDisplay:10.37,2013-09-10 04:59:00,
2013-09-09 19:04:00,77.2,65.4,30.12,NNE,22,2.0,3.5,67,0.00,SCT,BKN,0.00,0.0,WeatherDisplay:10.37,2013-09-10 05:04:00,
2013-09-09 19:09:00,77.0,65.2,30.12,NE,45,4.3,5.8,67,0.00,SCT,BKN,0.00,0.0,WeatherDisplay:10.37,2013-09-10 05:09:00,
2013-09-09 19:14:00,76.8,65.5,30.12,ENE,68,2.9,3.5,68,0.00,SCT,BKN,0.00,0.0,WeatherDisplay:10.37,2013-09-10 05:14:00,
2013-09-09 19:19:00,76.8,65.9,30.12,ENE,68,4.5,6.0,69,0.00,SCT,BKN,0.00,0.0,WeatherDisplay:10.37,2013-09-10 05:19:00,
2013-09-09 19:24:00,76.8,65.5,30.09,ENE,68,3.6,4.6,68,0.00,SCT,BKN,0.00,0.0,WeatherDisplay:10.37,2013-09-10 05:24:00,
2013-09-09 19:29:00,76.8,65.9,30.09,NE,45,4.3,6.2,69,0.00,SCT,BKN,0.00,0.0,WeatherDisplay:10.37,2013-09-10 05:29:00,
2013-09-09 19:34:00,76.8,65.9,30.09,NE,45,4.3,5.8,69,0.00,SCT,BKN,0.00,0.0,WeatherDisplay:10.37,2013-09-10 05:34:00,
2013-09-09 19:39:00,76.8,65.9,30.12,NE,45,2.9,4.3,69,0.00,SCT,BKN,0.00,0.0,WeatherDisplay:10.37,2013-09-10 05:39:00,
2013-09-09 19:44:00,76.8,66.3,30.12,ENE,68,4.5,5.8,70,0.00,SCT,BKN,0.00,0.0,WeatherDisplay:10.37,2013-09-10 05:44:00,
2013-09-09 19:49:00,76.8,66.3,30.12,ENE,68,4.0,5.8,70,0.00,SCT,BKN,0.00,0.0,WeatherDisplay:10.37,2013-09-10 05:49:00,
2013-09-09 19:54:00,76.6,66.1,30.12,NE,45,2.9,5.8,70,0.00,SCT,BKN,0.00,0.0,WeatherDisplay:10.37,2013-09-10 05:54:00,
2013-09-09 19:59:00,76.6,65.7,30.12,NE,45,3.6,5.8,69,0.00,SCT,BKN,0.00,0.0,WeatherDisplay:10.37,2013-09-10 05:59:00,
2013-09-09 20:04:00,76.6,65.7,30.12,NE,45,1.2,2.3,69,0.00,SCT,BKN,0.00,0.0,WeatherDisplay:10.37,2013-09-10 06:04:00,
2013-09-09 20:09:00,76.6,65.7,30.12,East,90,2.6,3.5,69,0.00,SCT,BKN,0.00,0.0,WeatherDisplay:10.37,2013-09-10 06:09:00,
2013-09-09 20:14:00,76.5,65.5,30.12,NE,45,4.3,4.6,69,0.00,SCT,BKN,0.00,0.0,WeatherDisplay:10.37,2013-09-10 06:14:00,
2013-09-09 20:19:00,76.5,65.9,30.12,NNE,22,4.5,5.8,70,0.00,SCT,BKN,0.00,0.0,WeatherDisplay:10.37,2013-09-10 06:19:00,
2013-09-09 20:24:00,76.5,65.9,30.12,NE,45,4.7,5.8,70,0.00,SCT,BKN,0.00,0.0,WeatherDisplay:10.37,2013-09-10 06:24:00,
2013-09-09 20:29:00,76.5,65.9,30.12,East,90,3.8,4.6,70,0.00,SCT,BKN,0.00,0.0,WeatherDisplay:10.37,2013-09-10 06:29:00,
2013-09-09 20:34:00,76.5,65.9,30.12,East,90,2.2,3.5,70,0.00,SCT,BKN,0.00,0.0,WeatherDisplay:10.37,2013-09-10 06:34:00,
2013-09-09 20:39:00,76.6,66.5,30.12,SE,135,2.2,4.6,71,0.00,SCT,BKN,0.00,0.0,WeatherDisplay:10.37,2013-09-10 06:39:00,
2013-09-09 20:44:00,76.5,65.9,30.12,NNW,338,3.8,5.8,70,0.00,SCT,BKN,0.00,0.0,WeatherDisplay:10.37,2013-09-10 06:44:00,
2013-09-09 20:49:00,76.5,65.1,30.12,North,0,4.3,5.8,68,0.00,SCT,BKN,0.00,0.0,WeatherDisplay:10.37,2013-09-10 06:49:00,
2013-09-09 20:54:00,76.5,64.7,30.12,East,90,0.0,2.3,67,0.00,SCT,BKN,0.00,0.0,WeatherDisplay:10.37,2013-09-10 06:54:00,
2013-09-09 20:59:00,76.5,64.7,30.12,NNE,22,6.7,10.4,67,0.00,SCT,BKN,0.00,0.0,WeatherDisplay:10.37,2013-09-10 06:59:00,
2013-09-09 21:04:00,76.5,65.5,30.12,NNE,22,2.6,3.6,69,0.00,SCT,BKN,0.00,0.0,WeatherDisplay:10.37,2013-09-10 07:04:00,
2013-09-09 21:10:00,76.3,65.4,30.12,NE,46,3.0,0.0,69,0.00,SCT,BKN,0.00,0.0,WeatherDisplay:10.37,2013-09-10 07:10:00,
2013-09-09 21:15:00,76.3,65.4,30.12,NE,45,2.6,4.6,69,0.00,SCT,BKN,0.00,0.0,WeatherDisplay:10.37,2013-09-10 07:15:00,
2013-09-09 21:20:00,76.1,65.2,30.12,ENE,68,3.3,5.8,69,0.00,SCT,BKN,0.00,0.0,WeatherDisplay:10.37,2013-09-10 07:20:00,
2013-09-09 21:25:00,76.1,65.2,30.09,ENE,68,4.0,5.8,69,0.00,SCT,BKN,0.00,0.0,WeatherDisplay:10.37,2013-09-10 07:25:00,
2013-09-09 21:30:00,76.1,65.2,30.09,East,90,1.4,2.3,69,0.00,SCT,BKN,0.00,0.0,WeatherDisplay:10.37,2013-09-10 07:30:00,
2013-09-09 21:35:00,75.9,65.0,30.09,ENE,68,1.4,2.9,69,0.00,SCT,BKN,0.00,0.0,WeatherDisplay:10.37,2013-09-10 07:35:00,
2013-09-09 21:40:00,76.1,65.6,30.12,East,90,2.4,3.5,70,0.00,SCT,BKN,0.00,0.0,WeatherDisplay:10.37,2013-09-10 07:40:00,
2013-09-09 21:45:00,76.1,65.6,30.12,ENE,68,1.2,3.5,70,0.00,SCT,BKN,0.00,0.0,WeatherDisplay:10.37,2013-09-10 07:45:00,
2013-09-09 21:50:00,76.1,65.6,30.12,NNE,22,2.2,3.5,70,0.00,SCT,BKN,0.00,0.0,WeatherDisplay:10.37,2013-09-10 07:50:00,
2013-09-09 21:55:00,76.1,66.0,30.12,ENE,68,3.6,4.6,71,0.00,SCT,BKN,0.00,0.0,WeatherDisplay:10.37,2013-09-10 07:55:00,
2013-09-09 22:00:00,76.1,65.6,30.12,North,0,2.4,4.6,70,0.00,SCT,BKN,0.00,0.0,WeatherDisplay:10.37,2013-09-10 08:00:00,
2013-09-09 22:05:00,76.3,65.8,30.12,NE,45,4.7,8.1,70,0.00,SCT,BKN,0.00,0.0,WeatherDisplay:10.37,2013-09-10 08:05:00,
2013-09-09 22:10:00,76.1,66.0,30.12,NE,45,5.9,7.4,71,0.00,SCT,BKN,0.00,0.0,WeatherDisplay:10.37,2013-09-10 08:10:00,
2013-09-09 22:15:00,76.1,66.0,30.12,North,0,4.5,5.8,71,0.00,SCT,BKN,0.00,0.0,WeatherDisplay:10.37,2013-09-10 08:15:00,
2013-09-09 22:20:00,76.1,66.0,30.12,NE,45,4.3,5.4,71,0.00,SCT,BKN,0.00,0.0,WeatherDisplay:10.37,2013-09-10 08:20:00,
2013-09-09 22:25:00,76.1,66.0,30.12,East,90,2.9,4.6,71,0.00,SCT,BKN,0.00,0.0,WeatherDisplay:10.37,2013-09-10 08:25:00,
2013-09-09 22:30:00,76.1,66.0,30.12,ENE,68,4.9,6.9,71,0.00,SCT,BKN,0.00,0.0,WeatherDisplay:10.37,2013-09-10 08:30:00,
2013-09-09 22:35:00,76.1,66.0,30.12,NE,45,4.3,5.8,71,0.00,SCT,BKN,0.00,0.0,WeatherDisplay:10.37,2013-09-10 08:35:00,
2013-09-09 22:40:00,76.1,66.0,30.12,NE,45,4.0,5.9,71,0.00,SCT,BKN,0.00,0.0,WeatherDisplay:10.37,2013-09-10 08:40:00,
2013-09-09 22:45:00,76.1,65.6,30.12,NNE,22,4.0,6.9,70,0.00,SCT,BKN,0.00,0.0,WeatherDisplay:10.37,2013-09-10 08:45:00,
2013-09-09 22:50:00,76.1,65.6,30.12,NE,45,2.9,3.5,70,0.00,SCT,BKN,0.00,0.0,WeatherDisplay:10.37,2013-09-10 08:50:00,
2013-09-09 22:55:00,76.1,65.6,30.12,NE,45,3.6,4.6,70,0.00,SCT,BKN,0.00,0.0,WeatherDisplay:10.37,2013-09-10 08:55:00,
2013-09-09 23:00:00,76.1,65.6,30.12,East,90,2.9,4.6,70,0.00,SCT,BKN,0.00,0.0,WeatherDisplay:10.37,2013-09-10 09:00:00,
2013-09-09 23:05:00,75.9,65.4,30.12,East,90,2.4,3.6,70,0.00,SCT,BKN,0.00,0.0,WeatherDisplay:10.37,2013-09-10 09:05:00,
2013-09-09 23:10:00,75.9,65.8,30.12,ENE,68,3.8,4.6,71,0.00,SCT,BKN,0.00,0.0,WeatherDisplay:10.37,2013-09-10 09:10:00,
2013-09-09 23:15:00,75.9,65.8,30.12,NE,45,2.0,3.5,71,0.00,SCT,BKN,0.00,0.0,WeatherDisplay:10.37,2013-09-10 09:15:00,
2013-09-09 23:20:00,75.9,66.2,30.12,East,90,4.5,4.6,72,0.00,SCT,BKN,0.00,0.0,WeatherDisplay:10.37,2013-09-10 09:20:00,
2013-09-09 23:25:00,75.9,65.8,30.12,NE,45,5.6,8.1,71,0.00,SCT,BKN,0.00,0.0,WeatherDisplay:10.37,2013-09-10 09:25:00,
2013-09-09 23:30:00,75.9,66.2,30.12,NE,45,5.9,8.1,72,0.00,SCT,BKN,0.00,0.0,WeatherDisplay:10.37,2013-09-10 09:30:00,
2013-09-09 23:35:00,75.7,65.3,30.12,NNE,22,4.0,5.8,70,0.00,SCT,BKN,0.00,0.0,WeatherDisplay:10.37,2013-09-10 09:35:00,
2013-09-09 23:40:00,75.7,66.1,30.12,ENE,68,6.7,8.1,72,0.00,SCT,BKN,0.00,0.0,WeatherDisplay:10.37,2013-09-10 09:40:00,
2013-09-09 23:45:00,75.7,65.3,30.12,NE,45,6.2,6.7,70,0.00,SCT,BKN,0.00,0.0,WeatherDisplay:10.37,2013-09-10 09:45:00,
2013-09-09 23:50:00,75.7,65.7,30.12,NE,45,6.0,6.9,71,0.00,SCT,BKN,0.00,0.0,WeatherDisplay:10.37,2013-09-10 09:50:00,
2013-09-09 23:55:00,75.6,65.1,30.09,NE,45,4.9,5.9,70,0.00,SCT,BKN,0.00,0.0,WeatherDisplay:10.37,2013-09-10 09:55:00,